Flag for Germany Past Weather in Menden (Sauerland), North Rhine-Westphalia, Germany — Yesterday and Last 2 Weeks

Now
72 °F

Partly sunny.


Feels Like: 77 °F
Forecast: 62 / 74 °F
Wind: 5 mph from Northwest

Location: Dortmund / Wickede

Current Time: Jul 26, 2016 at 6:04:29 PM

Latest Report: Jul 26, 2016 at 5:20 PM


Visibility: N/A

Pressure: 30.12 "Hg

Humidity: 47%

Dew Point: 50 °F

Location of Menden (Sauerland)Location

Past Weather in Menden (Sauerland) — Graph

°F

Menden (Sauerland) Temperature Yesterday

Maximum temperature yesterday: 79 °F (at 2:50 PM)
Minimum temperature yesterday: 66 °F (at 5:20 AM)
Average temperature yesterday: 73 °F

High & Low Weather Summary for the Past Weeks

 TemperatureHumidityPressure
High91 °F (Jul 20, 3:20 PM)88% (Jul 13, 5:20 AM)30.30 "Hg (Jul 13, 5:20 AM)
Low48 °F (Jul 14, 5:20 AM)20% (Jul 20, 5:20 PM)29.83 "Hg (Jul 11, 6:20 PM)
Average69 °F60%30.07 "Hg
* Reported Jul 11 4:20 PM — Jul 26 4:50 PM, Menden (Sauerland), Weather by CustomWeather, © 2016

Note: Actual official high and low records may vary slightly from our data, if they occured in-between our weather recording intervals... More about our weather records

Advertising

Menden (Sauerland) Weather History for the Previous 24 Hours

Scroll right to see more
 ConditionsComfort  
Time TempWeatherWind HumidityBarometerVisibility
4:50 PM
Tue, Jul 26
72 °FPartly sunny.7 mph47%30.12 "HgN/A
4:20 PM72 °FPartly sunny.7 mph50%30.12 "HgN/A
3:50 PM72 °FPartly sunny.8 mph47%30.12 "HgN/A
3:20 PM73 °FPartly sunny.7 mph47%30.12 "HgN/A
2:50 PM73 °FPartly sunny.7 mph50%30.12 "HgN/A
2:20 PM73 °FPassing clouds.5 mph53%30.12 "HgN/A
1:50 PM72 °FScattered clouds.3 mph57%30.12 "HgN/A
1:20 PM72 °FPassing clouds.3 mph57%30.15 "HgN/A
12:50 PM72 °FPassing clouds.5 mph57%30.15 "HgN/A
12:20 PM70 °FSunny.2 mph60%30.15 "Hg10 mi
11:50 AM70 °FPassing clouds.6 mph64%30.15 "HgN/A
11:20 AM68 °FPartly sunny.3 mph69%30.15 "HgN/A
10:50 AM68 °FBroken clouds.3 mph69%30.15 "HgN/A
10:20 AM66 °FBroken clouds.3 mph73%30.15 "HgN/A
9:50 AM66 °FScattered clouds.5 mph83%30.15 "HgN/A
9:20 AM66 °FPartly sunny.2 mph78%30.15 "Hg5 mi
8:50 AM66 °FScattered clouds.3 mph78%30.15 "Hg4 mi
8:20 AM64 °FPartly sunny.2 mph83%30.15 "Hg4 mi
7:50 AM64 °FScattered clouds.1 mph88%30.15 "Hg4 mi
7:20 AM63 °FScattered clouds.3 mph88%30.12 "Hg5 mi
6:50 AM63 °FPartly sunny.No wind88%30.15 "Hg6 mi
6:20 AM61 °FPassing clouds.No wind88%30.12 "Hg6 mi
5:50 AM61 °FClear.3 mph88%30.12 "Hg6 mi
5:20 AM63 °FPassing clouds.No wind88%30.12 "Hg6 mi
9:50 PM
Mon, Jul 25
66 °FLight rain. Scattered clouds.2 mph83%30.09 "HgN/A
9:20 PM66 °FLight rain. Scattered clouds.No wind88%30.09 "HgN/A
8:50 PM66 °FSprinkles. Scattered clouds.9 mph88%30.09 "HgN/A
8:20 PM73 °FScattered clouds.5 mph57%30.09 "HgN/A
7:50 PM73 °FScattered clouds.7 mph57%30.09 "HgN/A
7:20 PM77 °FPassing clouds.6 mph54%30.07 "HgN/A
6:50 PM75 °FScattered clouds.6 mph54%30.07 "HgN/A
6:20 PM75 °FScattered clouds.5 mph57%30.09 "HgN/A
Weather by CustomWeather, © 2016

See weather overviewHow to use our weather pages